Wind_Speed
25 22 21 19 20 23 25 24 23 22 22 22 21 20 20 20 20 20 20 19 18 16 16 17 18 19 18 16 13 11 10 11 12 12 12 11 10 10 9 8 8 8 7 8 10 11 13 14 16 16 15 14 12 11 11 10 10 9 9 10 10 10 10 9 10 12 12 13 13 13 13 13 13 13 13 14 15 16 18 20 21 22 22 22 21
26 24 22 21 23 26 26 24 22 22 22 21 20 20 21 21 21 21 21 21 20 18 17 17 18 18 16 15 14 11 11 11 12 12 12 12 11 10 9 9 9 9 8 9 10 11 14 15 16 17 16 14 13 12 11 10 10 10 10 10 10 10 10 11 13 14 13 14 14 13 12 12 12 12 12 12 13 14 14 16 18 20 20 20 19
27 26 24 23 24 26 26 24 22 21 21 20 20 20 21 21 22 22 21 22 23 20 18 18 18 17 16 15 13 12 11 11 11 11 11 11 11 10 10 10 9 9 9 10 10 11 13 15 16 16 16 15 14 13 12 11 10 10 10 10 11 11 11 12 13 14 15 15 16 13 11 12 13 13 13 12 13 13 13 15 16 16 16 17 18
28 27 25 24 25 26 27 25 22 21 20 20 20 20 22 21 22 23 22 23 24 22 19 18 18 18 16 14 12 12 12 11 11 11 11 11 11 11 11 10 10 10 10 10 11 11 12 13 14 15 16 16 15 14 13 12 11 10 9 10 12 12 12 13 13 15 16 17 17 14 12 14 13 12 13 13 15 15 13 14 15 14 13 15 18
28 26 24 24 25 26 28 26 22 20 19 20 20 21 22 23 24 23 23 23 23 24 21 18 19 18 15 13 12 13 13 12 12 12 12 12 12 12 12 11 11 10 10 9 11 12 12 12 13 13 14 15 15 15 14 14 13 11 9 11 12 12 12 14 14 16 17 18 17 15 14 15 14 12 14 15 15 15 14 14 15 14 13 15 18
25 23 23 24 23 24 27 26 21 18 18 20 20 21 22 23 24 22 22 22 23 26 24 19 20 17 14 13 12 13 14 13 13 13 13 13 13 13 13 12 11 11 10 9 10 11 12 12 12 13 13 14 15 15 15 14 15 15 13 13 13 13 13 14 14 15 16 17 17 16 16 17 16 16 16 16 17 16 16 16 16 15 15 15 18
21 21 22 22 22 23 25 24 20 17 18 19 19 21 22 23 23 21 21 23 24 27 26 20 18 16 13 13 13 14 14 13 13 13 13 13 13 13 13 12 11 11 10 9 9 10 12 13 14 13 13 14 14 14 15 14 15 16 16 15 15 14 14 14 14 15 15 16 16 16 17 18 18 19 18 18 19 19 17 16 16 15 16 17 20
20 20 21 20 21 22 23 23 21 20 20 19 20 22 23 24 23 20 21 24 24 26 22 16 14 13 12 12 13 14 13 13 13 13 12 12 12 11 11 11 11 11 11 10 10 10 11 13 14 14 14 14 14 14 14 14 15 15 16 17 16 15 15 15 14 13 14 16 16 16 17 19 20 20 19 19 20 20 18 17 18 17 18 20 21
22 21 21 20 21 21 21 21 22 22 22 21 21 23 23 23 23 21 22 25 25 24 19 14 13 12 11 11 13 13 13 13 13 13 12 11 10 10 10 10 11 11 12 12 12 12 12 12 13 14 14 14 14 14 15 15 16 16 16 16 16 16 15 15 15 15 15 16 16 17 18 19 20 19 19 19 20 20 20 19 19 19 20 21 22
22 20 21 21 20 20 20 21 22 24 25 24 22 23 22 20 19 17 18 19 19 20 19 15 13 13 13 13 13 13 14 14 13 13 12 11 11 10 11 11 11 12 12 13 14 14 14 13 13 13 14 15 15 16 17 17 17 17 17 17 17 16 15 15 15 16 16 16 17 18 18 19 20 20 20 21 21 21 21 20 20 21 21 22 23
20 18 20 20 19 22 24 25 25 26 27 26 24 25 23 17 14 13 14 15 17 19 18 15 14 14 14 14 13 14 15 14 14 13 13 13 13 13 14 14 14 14 14 15 15 15 16 15 15 15 15 16 17 18 19 18 17 17 18 18 17 16 16 15 14 15 16 16 17 18 18 18 20 21 22 21 20 20 20 21 21 22 22 22 22
18 18 21 21 21 26 29 28 27 27 28 27 25 26 22 16 13 15 18 20 22 23 22 19 16 15 16 15 15 16 16 15 14 13 13 14 15 16 16 16 16 16 16 17 17 17 17 17 17 17 18 18 18 19 20 19 19 18 19 19 19 18 17 16 15 15 15 15 16 17 17 18 20 21 22 21 21 20 20 22 23 23 23 22 22
19 20 23 24 25 29 29 26 25 24 24 24 23 21 19 17 19 20 21 22 23 24 25 23 19 18 17 16 17 17 16 15 14 13 14 15 16 17 17 17 18 18 19 20 19 19 18 18 18 18 18 19 20 21 21 20 19 19 19 19 19 19 17 16 16 15 15 15 15 16 17 18 19 21 21 22 22 22 22 23 24 23 23 22 22
23 23 23 24 26 27 26 25 23 22 21 20 20 20 19 22 25 26 24 22 23 24 25 25 23 21 18 17 19 18 17 16 15 15 16 17 17 18 18 19 20 20 20 20 20 20 19 18 19 19 19 20 21 22 21 19 18 18 18 19 19 18 17 16 15 15 14 14 14 15 16 17 19 20 21 21 22 22 22 23 22 22 22 21 20
22 21 22 24 26 26 26 26 24 22 20 20 21 24 24 25 28 30 26 22 23 24 25 27 26 23 20 19 20 20 19 18 17 17 18 18 18 18 18 18 17 17 17 17 18 17 17 17 18 19 20 20 20 19 19 18 18 18 18 18 18 18 17 16 15 14 14 13 14 15 15 16 17 18 19 19 20 20 20 20 20 20 19 18 18
22 22 23 25 26 27 27 28 26 23 21 22 23 23 24 25 27 29 28 24 24 25 25 26 27 26 23 21 21 21 21 20 20 19 19 19 18 17 15 14 13 14 14 15 16 16 16 16 16 17 18 18 17 17 17 17 18 18 18 18 18 17 16 15 14 13 13 13 14 14 15 15 16 16 17 17 18 18 18 18 18 17 17 17 17
24 25 26 26 27 28 29 30 30 26 24 25 24 24 24 25 25 27 29 28 27 26 26 27 26 28 26 22 22 23 23 23 22 21 20 19 17 15 14 14 14 14 14 15 16 17 17 17 16 16 16 16 16 16 17 17 18 18 18 18 17 16 15 14 13 13 13 13 13 14 14 14 14 15 15 15 16 16 16 16 16 15 15 15 15
27 28 28 28 29 29 30 32 32 30 28 27 27 27 28 29 28 27 30 31 27 25 26 28 27 30 29 24 22 24 25 25 23 22 21 19 17 16 16 15 15 15 15 15 15 16 17 17 17 17 17 16 16 17 17 17 18 18 18 18 18 17 15 14 13 13 13 13 13 13 14 14 14 14 14 15 15 15 15 15 15 15 15 15 15
29 29 30 30 31 31 32 34 34 33 32 29 28 28 29 32 32 30 30 33 31 27 27 29 29 31 32 28 25 25 25 24 24 23 22 20 17 17 17 16 16 16 15 15 15 15 15 15 15 16 17 17 17 17 17 18 18 19 19 19 19 18 16 15 14 13 13 13 12 13 13 13 13 14 14 14 14 15 15 15 15 15 16 16 16
30 30 31 32 32 33 34 36 37 36 35 34 33 33 33 34 35 33 30 33 36 31 29 30 32 31 31 30 26 24 22 22 22 22 21 20 18 18 18 17 16 16 16 16 16 15 15 15 15 15 16 17 17 17 17 18 18 19 19 19 19 19 17 16 16 15 15 14 14 13 13 13 14 14 14 14 15 15 16 16 16 16 17 17 17
31 32 33 33 34 35 36 38 39 39 38 38 38 38 38 37 37 37 33 32 35 34 30 30 32 31 29 29 27 24 22 22 22 22 21 20 19 19 19 17 17 17 16 16 16 16 16 16 16 16 16 17 17 18 18 19 19 19 19 18 19 19 18 18 17 17 16 15 15 15 15 15 15 15 15 16 16 16 16 17 17 17 17 17 17
34 34 35 35 36 36 37 39 40 40 38 36 34 34 34 35 35 37 36 33 33 35 33 29 30 30 29 29 28 25 24 24 24 23 22 21 20 19 19 18 18 17 16 16 15 15 15 15 15 15 16 17 17 18 18 18 18 18 18 18 18 19 19 19 19 18 17 16 16 16 16 16 16 16 17 17 17 17 17 17 17 18 18 18 18
35 35 35 35 35 35 36 38 39 39 36 34 32 31 31 32 32 33 34 32 32 34 34 30 31 32 32 31 29 26 24 24 24 24 23 21 21 21 20 20 19 18 17 16 15 15 14 14 15 15 15 16 17 17 16 16 17 18 18 18 19 19 20 20 20 19 19 18 18 18 18 18 18 18 18 18 19 19 19 19 19 19 19 19 19
33 33 33 33 34 34 35 36 37 36 34 32 31 31 31 30 29 29 29 30 31 31 32 32 33 34 33 29 26 24 23 23 23 24 23 22 22 22 22 21 20 19 18 18 17 16 16 15 15 15 15 15 16 17 17 18 19 20 20 21 21 21 21 21 21 20 20 21 21 21 21 21 21 21 20 20 21 21 21 21 21 21 20 21 21
30 31 32 31 32 32 32 32 33 33 32 31 31 30 29 28 28 27 26 27 27 26 26 26 28 30 29 25 23 22 22 23 23 24 24 24 24 23 23 22 22 20 20 20 20 19 18 18 17 16 16 16 16 17 17 19 20 20 21 21 21 22 22 21 21 21 22 23 23 23 23 23 23 23 23 23 23 23 23 23 24 24 23 23 25
28 28 28 28 28 28 28 29 30 31 30 29 28 28 27 26 26 25 24 24 23 21 21 21 20 22 24 23 23 23 23 24 24 25 25 25 25 24 24 23 23 22 22 22 21 21 21 20 20 19 17 16 16 16 17 18 19 20 20 20 20 21 22 22 22 22 23 24 25 26 26 26 26 26 26 26 26 26 25 26 26 26 25 25 26
26 26 26 26 26 27 28 28 29 29 28 26 24 24 24 24 24 24 23 22 21 20 20 21 21 21 22 23 24 24 24 24 24 25 25 25 25 25 24 24 23 23 24 24 24 23 23 22 21 19 17 15 15 15 16 17 19 20 20 20 20 21 22 23 24 25 25 26 27 27 28 29 29 29 29 29 28 28 27 27 28 28 27 27 27
26 25 25 25 26 26 28 28 28 28 27 25 23 22 21 22 22 22 22 21 20 19 19 21 22 22 23 23 23 24 24 24 25 26 27 27 26 25 25 25 24 24 25 25 24 24 23 23 21 20 19 18 18 19 19 19 20 21 22 22 23 24 25 26 26 27 27 28 30 30 31 32 32 32 31 31 30 30 28 28 29 29 29 30 30
26 27 26 26 25 25 25 25 26 26 26 25 25 24 23 21 20 20 19 19 19 18 18 19 20 21 22 22 23 24 24 24 25 26 26 27 27 27 26 26 25 24 24 24 24 23 23 23 24 25 25 24 24 24 23 23 23 24 25 27 28 29 29 29 29 29 29 30 32 33 34 35 34 34 33 33 32 32 31 30 30 31 31 31 31
28 28 28 27 27 26 25 25 25 25 26 26 26 26 24 22 21 21 20 20 20 19 19 19 19 21 22 23 24 25 24 24 25 25 25 26 26 26 27 27 26 26 26 26 26 26 26 27 28 29 29 29 29 29 28 28 28 28 29 31 32 33 33 32 32 32 32 32 34 35 35 35 34 34 34 34 34 34 34 33 33 33 33 32 32
29 29 29 29 28 28 28 27 27 27 27 27 27 27 26 25 24 23 23 23 23 23 23 22 23 24 24 25 26 26 25 26 26 26 27 27 26 27 27 28 29 29 29 30 30 30 30 31 31 32 32 32 33 33 33 33 33 32 33 34 35 35 36 35 35 35 35 35 35 35 34 34 34 35 36 36 36 36 35 35 35 35 35 35 35
30 30 30 30 29 29 29 29 29 29 29 29 28 28 28 27 26 26 26 26 26 27 27 27 27 27 27 27 28 28 29 29 29 29 30 30 30 30 30 31 32 32 33 33 33 33 34 34 35 35 35 35 36 38 37 37 37 36 36 37 38 38 38 38 38 38 37 37 36 36 36 35 35 35 35 37 38 37 37 37 37 37 37 38 38
31 31 31 32 32 32 31 31 31 30 30 30 30 30 30 30 30 30 29 29 30 30 30 30 30 30 30 31 32 32 33 33 34 34 34 34 34 35 35 35 35 36 37 37 37 37 37 38 38 38 38 38 39 40 39 39 39 39 39 40 41 41 41 40 40 39 38 38 38 39 39 39 38 37 35 35 36 35 36 37 38 38 38 39 39
34 35 35 36 35 35 34 33 33 32 32 32 32 33 33 33 33 34 34 34 34 34 34 35 35 35 35 35 36 36 36 37 37 37 37 38 38 38 38 38 38 39 40 40 40 40 40 40 40 40 40 40 40 41 41 40 40 41 42 42 42 43 42 41 40 39 39 38 39 41 42 40 38 38 36 35 35 34 35 37 37 38 39 40 40
38 39 39 39 39 38 37 36 36 36 37 36 36 36 36 36 37 37 38 38 39 39 39 40 41 41 40 40 39 39 39 39 39 40 40 40 41 41 41 42 43 43 44 44 44 44 44 44 43 43 41 41 42 42 42 41 41 42 43 44 44 45 44 43 42 42 42 41 41 43 44 42 40 40 39 39 40 39 39 39 39 39 40 41 41
41 41 41 40 40 40 39 39 38 39 39 39 39 38 38 38 39 40 41 41 42 42 41 42 43 43 42 41 41 42 42 43 42 42 42 42 42 41 41 42 43 44 44 44 44 43 43 43 44 44 43 43 44 43 43 43 43 43 45 46 47 47 46 45 45 45 45 46 45 45 46 46 46 45 45 43 43 43 42 42 42 42 42 42 43
44 45 44 43 41 40 40 40 40 40 41 41 41 41 41 42 41 41 43 43 42 41 41 42 42 43 44 45 47 47 48 48 47 46 45 44 43 42 42 41 41 41 41 42 42 43 43 44 45 47 47 48 47 46 45 45 46 47 48 48 49 49 48 48 47 46 46 46 45 45 47 48 48 48 47 47 46 46 45 45 45 44 44 44 44
42 41 42 43 41 39 40 41 40 40 41 42 42 40 40 41 42 42 44 43 41 41 43 45 46 47 50 51 52 51 50 49 48 48 47 47 47 47 47 47 46 46 47 47 48 49 49 49 49 50 51 51 50 48 48 47 48 49 49 49 49 50 49 48 47 47 47 47 46 46 47 48 50 51 51 52 51 51 50 48 48 47 47 46 45
43 40 38 37 37 39 40 40 39 38 38 39 39 37 37 38 39 41 43 43 44 45 48 50 50 51 52 52 52 51 51 51 51 52 52 53 53 53 53 52 51 52 52 53 53 53 53 53 53 53 53 53 52 50 49 49 48 48 48 48 49 49 50 50 50 50 50 50 50 51 51 52 53 54 55 56 55 54 53 51 49 48 47 46 46
51 49 46 44 43 44 45 45 45 45 44 44 44 43 43 44 44 44 45 46 47 48 51 52 53 54 55 55 56 56 57 57 58 58 58 58 57 57 56 55 55 54 55 55 56 56 56 56 56 56 56 55 52 49 49 49 49 48 49 49 48 48 49 50 51 52 52 52 53 53 54 55 56 56 57 57 56 55 53 51 49 48 48 47 47
52 53 53 52 51 51 51 51 51 52 52 52 52 52 52 54 54 53 53 53 54 55 56 58 59 60 61 61 61 61 62 62 62 62 62 61 60 60 59 58 57 56 56 57 57 57 58 57 56 55 54 53 51 50 50 50 49 48 49 48 47 47 48 49 50 51 51 52 53 53 54 54 54 54 54 54 53 52 50 49 49 48 49 48 47
48 50 51 51 51 51 52 52 53 53 54 54 55 56 57 58 59 60 60 60 61 62 63 63 63 64 64 63 63 64 64 64 63 64 64 64 64 63 63 62 61 59 58 58 57 56 58 58 55 55 56 56 55 54 52 51 50 49 48 47 46 47 48 49 50 52 52 51 51 52 52 51 50 49 49 49 49 49 48 48 49 49 49 48 47
45 47 48 49 50 50 51 52 53 54 55 56 57 58 59 60 61 63 63 64 65 65 65 65 65 65 65 65 66 66 66 66 66 66 66 66 66 66 66 66 65 64 62 61 59 58 58 58 56 57 58 58 57 56 54 54 54 52 51 51 51 52 53 53 52 54 53 52 52 53 52 50 49 49 48 48 48 47 46 46 46 47 47 48 48
46 46 47 48 49 50 51 52 53 54 55 56 58 59 60 61 62 63 64 64 65 65 66 66 66 66 67 67 67 68 69 69 69 69 69 69 69 69 69 69 68 67 66 64 62 58 55 55 56 57 57 56 56 57 57 58 58 58 57 58 58 58 58 56 54 54 53 52 54 55 54 52 51 50 49 48 47 45 43 43 44 46 48 49 51
47 47 48 49 50 51 52 52 53 54 55 56 57 59 60 61 62 63 64 65 65 66 67 67 68 69 69 70 70 71 71 72 73 73 73 73 72 72 71 70 69 68 67 65 63 60 57 56 57 58 58 58 58 58 59 60 60 61 61 61 60 60 59 56 54 54 54 54 56 56 55 54 53 50 48 47 46 44 43 44 45 47 49 52 54
49 50 50 51 52 53 54 55 56 57 58 58 60 61 62 63 64 64 65 66 67 68 68 69 70 71 71 72 72 72 73 73 73 74 74 74 73 72 72 70 69 68 67 66 64 62 60 59 58 58 58 57 57 58 59 59 59 59 59 59 58 58 57 56 56 55 55 55 56 55 54 53 52 50 48 47 47 46 45 45 47 49 51 54 57
52 52 54 55 55 56 57 58 58 59 60 61 62 63 64 65 66 66 67 68 68 68 69 69 70 71 72 72 72 72 72 72 72 73 73 73 73 73 72 71 70 68 67 67 65 62 59 57 57 59 59 58 56 57 57 58 57 56 55 55 55 56 55 55 55 55 56 56 55 53 51 51 51 50 50 50 49 48 47 48 50 53 54 56 58
53 54 55 55 56 57 58 58 59 60 61 61 62 63 64 65 65 66 66 67 67 67 68 68 69 70 70 71 72 72 72 73 73 73 73 73 73 73 72 72 71 69 67 67 66 62 57 54 52 53 55 55 55 55 55 54 54 54 54 54 54 55 55 55 54 54 55 54 52 50 49 48 49 50 50 49 49 49 50 51 52 53 54 54 55
52 53 53 54 55 55 56 57 57 58 58 59 60 61 62 63 63 64 64 64 65 65 65 65 65 65 66 67 68 68 69 69 69 70 70 70 70 70 69 69 68 68 66 65 64 61 55 51 49 48 49 51 52 52 51 50 49 50 52 53 53 54 55 56 56 56 54 52 50 49 47 47 48 49 50 50 50 51 51 51 50 51 52 52 53
49 50 51 51 52 52 53 54 54 55 56 57 58 58 59 59 59 59 59 59 58 58 57 57 57 57 58 59 60 60 61 62 62 62 63 64 64 64 64 64 64 65 64 62 61 60 57 56 55 52 49 50 52 49 47 46 46 46 47 48 49 50 52 53 55 55 55 54 53 52 51 50 50 51 52 51 50 49 49 48 49 51 52 53 55
46 47 48 49 49 50 51 51 52 52 53 54 55 55 54 54 54 54 53 52 52 52 52 53 53 54 54 55 55 56 57 58 58 59 59 60 61 61 62 62 63 63 63 62 61 60 59 59 58 53 49 50 51 50 48 48 47 45 45 45 46 47 48 50 51 51 51 50 50 50 49 48 48 48 48 47 46 46 47 47 49 51 53 55 57
Wind_Direction
252 256 257 258 255 253 258 261 259 258 260 259 259 260 259 260 258 255 252 242 238 236 230 229 231 234 239 247 252 256 266 270 270 269 266 264 262 261 262 260 257 254 253 257 257 254 253 253 257 264 270 274 277 277 277 277 274 273 271 270 265 263 261 256 263 270 271 274 274 269 265 263 265 267 269 274 279 279 274 270 270 273 277 279 279
253 255 257 257 254 255 260 261 259 259 260 259 259 260 259 260 256 247 245 246 244 238 231 226 227 232 238 243 248 256 263 266 268 267 263 261 260 261 263 262 260 254 249 250 254 256 256 255 256 261 267 271 275 277 279 280 278 280 278 273 271 270 265 260 262 267 268 269 268 265 262 265 265 265 268 273 277 279 274 270 268 269 272 276 278
252 254 254 255 254 257 260 259 259 260 260 259 259 260 259 258 253 243 243 250 247 237 231 227 226 230 236 241 249 257 262 263 262 260 256 254 256 259 259 257 257 254 249 246 249 254 256 257 257 259 263 269 275 278 281 284 283 288 288 285 284 278 267 262 263 266 266 266 268 269 270 271 269 270 274 276 278 278 272 268 268 268 271 273 274
250 251 252 254 256 261 264 262 260 258 257 257 257 258 257 253 250 246 247 251 248 238 231 228 227 229 234 240 251 258 261 260 255 253 252 255 258 261 259 254 251 250 250 249 250 252 256 259 260 261 263 266 272 278 281 283 283 288 290 285 282 276 270 272 272 268 264 263 267 274 280 279 278 280 281 280 283 284 277 269 268 269 273 276 277
247 249 250 252 256 263 266 266 262 256 254 255 254 253 252 250 249 248 247 249 246 236 227 225 226 228 233 238 247 253 255 255 253 253 256 261 265 264 259 249 242 241 243 248 252 254 255 259 263 266 268 269 271 274 278 281 284 289 288 279 278 276 276 277 273 268 266 265 267 272 277 281 285 286 285 285 285 286 282 271 269 273 275 276 279
243 245 247 250 255 261 265 269 269 262 255 254 253 252 251 248 247 247 246 246 241 231 228 227 226 227 230 233 241 247 251 253 253 256 260 265 269 267 260 245 234 231 231 238 251 258 259 261 264 267 270 272 272 272 272 274 279 283 283 278 275 273 271 270 267 266 267 269 271 275 278 281 285 285 285 287 284 285 285 273 266 271 276 278 279
235 238 242 246 251 256 261 270 278 276 265 258 254 253 251 246 244 241 236 237 233 227 229 229 225 227 228 229 236 240 246 250 253 259 263 267 269 266 256 243 234 231 230 236 248 259 263 263 265 266 270 272 273 274 274 272 273 275 276 274 272 270 267 266 266 267 270 272 274 278 281 282 285 285 285 287 285 287 287 274 267 269 273 276 276
222 227 234 239 244 249 258 269 276 274 268 265 256 247 245 242 238 235 231 233 224 215 222 230 230 233 230 230 235 237 242 247 252 259 261 264 266 260 248 239 237 238 238 243 254 264 267 266 266 266 268 270 271 273 276 277 276 274 274 273 272 273 273 275 276 276 278 278 279 281 282 283 285 284 283 285 285 286 282 272 270 273 273 274 274
214 220 226 231 238 245 255 264 268 268 268 270 260 245 243 240 234 234 237 231 214 211 232 247 242 242 238 236 238 238 243 246 250 256 257 259 258 252 245 241 244 247 248 255 265 272 274 274 271 266 265 267 268 272 276 281 281 278 275 273 274 276 279 284 288 289 286 285 287 287 285 286 285 281 282 283 283 282 277 271 271 275 275 275 276
218 224 225 230 236 243 251 255 258 260 261 263 256 245 243 238 235 238 238 230 223 235 254 255 246 249 247 244 245 244 248 251 252 255 254 253 251 251 254 254 256 258 261 266 272 276 278 278 277 273 268 266 269 274 279 282 283 280 277 274 274 275 277 281 285 288 286 286 288 287 287 288 284 282 282 281 281 280 276 274 276 277 278 278 279
228 230 231 237 239 242 244 245 246 249 252 254 251 248 244 239 248 256 250 250 256 262 266 266 265 263 255 250 249 249 254 256 258 259 256 255 257 262 267 269 269 269 270 272 273 273 274 276 278 278 275 274 275 278 282 283 283 282 280 277 274 273 273 274 276 280 281 283 285 286 288 287 284 285 284 279 278 277 275 279 284 284 284 283 283
229 231 234 242 242 240 239 239 239 242 249 253 249 248 247 248 264 266 257 255 258 260 263 267 272 270 264 259 253 251 255 259 261 264 265 266 269 273 277 279 280 281 281 280 278 276 275 276 276 277 278 280 281 283 285 285 284 283 281 279 277 274 273 271 271 274 277 280 284 286 288 287 285 287 286 280 280 279 277 283 288 288 288 287 285
226 228 232 239 241 241 243 246 246 248 255 254 245 245 248 251 261 261 257 257 258 262 265 265 263 260 259 257 255 254 255 260 266 270 275 277 279 283 286 288 289 289 288 287 287 285 282 278 275 275 278 280 281 282 284 284 283 283 281 279 278 275 274 273 272 272 275 279 284 287 288 288 287 288 286 283 282 282 281 285 288 288 287 286 283
223 226 231 240 245 249 256 260 260 264 271 261 249 253 256 257 259 255 252 256 260 266 271 270 264 256 251 250 252 253 255 260 268 273 277 280 284 288 291 293 293 292 290 290 292 292 288 281 275 274 278 281 280 278 278 280 281 280 280 278 277 276 274 273 273 273 274 277 282 286 288 288 288 288 286 284 283 282 282 283 284 283 283 282 281
230 234 238 244 250 257 261 263 263 268 277 271 259 258 261 268 270 260 251 251 258 266 272 273 265 255 250 249 249 253 256 259 265 270 274 278 283 289 293 296 296 293 291 291 292 294 293 287 279 274 274 277 275 273 273 275 277 278 277 276 275 276 275 274 274 276 277 279 281 284 286 287 288 287 284 282 280 279 278 278 277 278 279 280 281
242 245 248 250 254 259 260 262 264 264 273 277 272 265 264 272 276 266 259 262 269 270 270 268 260 249 249 252 252 254 257 258 261 266 272 278 283 287 290 293 296 296 292 291 292 294 294 291 282 273 268 268 267 267 269 272 274 274 274 273 272 273 273 274 276 278 281 284 285 286 286 285 284 282 280 278 277 276 276 276 277 278 279 280 282
248 252 255 255 257 260 262 264 266 268 274 279 280 276 273 275 275 266 260 267 278 277 269 266 255 242 245 254 253 253 256 258 260 265 270 277 279 278 279 285 291 291 289 289 291 292 292 290 283 274 268 265 266 267 269 270 271 270 270 269 268 269 271 273 276 278 281 283 285 286 285 283 281 279 278 277 277 277 278 278 278 279 279 279 281
254 256 258 259 260 263 265 267 272 277 278 276 275 274 275 277 276 269 258 258 274 284 275 266 254 242 243 251 254 257 258 257 258 262 267 271 270 268 272 279 283 283 283 286 288 289 289 287 284 280 276 273 274 275 275 274 272 271 270 268 267 267 268 271 274 277 279 282 283 285 285 284 283 282 281 281 280 280 279 279 278 277 276 275 276
256 258 260 261 263 266 268 271 276 279 277 273 270 271 275 275 273 272 263 253 263 283 281 264 253 247 245 249 258 261 258 255 256 259 262 263 261 262 266 270 272 274 277 281 284 287 288 287 286 284 282 281 280 280 281 280 278 277 275 273 271 270 269 270 272 274 277 279 279 280 281 281 282 282 282 281 280 279 278 277 275 274 274 275 276
254 257 260 262 264 266 269 271 274 276 276 274 273 274 278 277 270 266 266 260 259 272 282 265 250 248 247 249 256 258 255 254 253 254 256 255 255 257 260 260 262 266 269 273 278 281 283 285 286 285 286 286 285 285 285 284 283 281 278 276 273 270 267 266 266 268 269 271 272 273 273 274 276 277 276 276 275 274 273 273 272 271 272 273 275
252 255 258 261 264 267 269 271 272 274 276 275 275 275 276 278 271 261 266 273 263 262 276 267 249 246 247 248 253 254 251 250 248 249 250 251 252 254 255 256 259 261 263 266 269 272 275 278 280 283 285 286 287 287 286 284 283 281 279 277 272 268 265 263 262 263 264 267 270 272 274 274 274 273 272 271 270 270 269 270 270 270 270 271 273
251 253 256 259 262 264 266 269 271 273 275 275 274 273 273 275 272 263 266 276 267 262 273 266 245 243 246 248 252 250 245 244 245 246 247 248 250 251 252 255 255 258 260 260 262 264 267 270 274 278 280 282 283 284 284 283 282 280 280 278 276 273 270 267 265 262 261 263 266 267 269 271 271 271 270 269 268 268 268 267 268 269 271 273 274
250 252 254 256 258 260 262 265 268 269 272 273 272 273 274 274 272 268 269 274 270 268 270 257 243 245 247 247 248 245 242 240 240 242 243 245 246 247 250 252 252 254 255 256 256 257 260 263 268 273 276 276 276 277 280 281 280 280 279 278 278 277 275 273 270 266 263 261 261 261 262 263 264 264 264 265 266 266 266 266 266 267 268 272 275
248 250 251 252 254 256 258 261 265 267 267 269 270 270 272 273 273 272 273 274 274 273 267 254 248 248 244 239 237 235 233 233 235 238 241 243 244 246 249 250 250 252 253 254 255 255 256 258 260 265 270 271 270 270 272 275 276 277 277 278 279 279 279 278 274 271 268 266 265 263 263 263 263 263 263 264 265 266 267 267 267 267 267 270 273
245 247 248 250 251 252 255 257 261 264 265 265 265 266 269 271 272 273 274 275 276 274 266 257 252 246 236 227 223 224 225 228 231 236 238 241 244 247 249 250 251 252 254 257 258 257 256 256 256 257 260 263 267 268 270 272 274 276 277 278 280 282 282 281 277 275 273 272 271 269 268 268 268 269 270 270 270 269 268 267 268 268 269 273 276
242 244 245 246 247 247 250 253 256 260 262 263 263 266 269 271 273 274 274 274 274 271 266 260 253 243 232 223 220 221 223 227 230 234 239 242 245 246 248 249 250 253 257 259 259 258 256 255 254 253 253 256 260 265 270 273 274 276 277 278 279 281 282 281 279 278 276 275 274 272 271 271 271 271 272 273 273 271 270 269 269 270 271 273 275
239 241 242 243 244 245 246 251 254 256 261 265 265 265 268 270 272 272 271 272 272 269 266 260 252 240 231 226 223 224 226 230 235 238 242 244 244 245 246 248 252 254 257 260 260 260 258 256 253 251 251 256 261 266 270 272 273 273 273 275 278 280 280 279 278 277 277 277 276 274 273 271 271 271 271 271 270 269 269 269 269 270 270 269 269
240 241 241 241 243 245 246 249 253 256 260 264 265 264 264 265 267 268 269 270 270 268 263 257 249 240 233 227 227 230 234 238 243 246 247 247 246 246 248 250 253 256 258 260 261 262 261 260 258 258 263 269 272 273 273 272 272 270 270 273 276 278 279 279 278 277 276 276 275 274 273 272 271 271 270 269 267 266 265 266 268 269 269 269 269
243 242 242 241 242 243 244 246 250 254 257 259 261 263 263 262 263 266 267 266 266 264 258 253 246 238 233 230 233 238 240 242 246 250 254 253 251 251 253 254 255 257 259 260 261 262 262 262 264 269 274 277 278 278 276 273 271 270 271 273 275 276 278 279 279 279 278 278 277 275 272 270 270 270 270 268 266 265 264 265 268 269 269 270 271
245 245 244 243 242 240 241 244 247 251 254 257 259 263 264 263 262 262 262 260 257 252 248 246 241 237 237 239 242 245 245 246 249 252 257 259 256 255 256 256 257 257 258 259 260 261 263 265 268 271 275 278 279 279 277 274 272 271 271 273 275 277 278 278 279 279 279 280 278 275 272 270 269 269 269 269 267 266 266 267 268 268 268 270 271
248 249 248 247 246 244 244 246 248 250 252 254 257 259 262 264 263 262 260 258 254 250 248 245 242 241 243 245 247 249 249 250 251 252 256 258 258 257 257 257 257 258 260 261 262 263 265 267 270 272 274 277 278 279 278 276 274 273 272 273 274 275 277 278 279 279 279 280 278 274 271 271 271 270 269 269 268 267 267 267 267 267 267 269 272
251 251 250 250 249 249 248 248 248 248 249 251 253 256 259 261 262 261 259 257 255 253 252 250 248 246 247 246 247 249 249 251 252 254 256 257 257 257 257 258 259 260 261 263 264 265 266 268 270 272 273 274 276 277 277 276 276 275 274 274 274 275 277 278 278 279 279 278 276 272 268 268 271 273 271 269 267 266 267 268 268 267 267 269 272
256 254 253 252 252 251 252 252 251 251 250 250 252 254 256 257 259 260 259 257 255 254 253 253 252 250 248 247 247 248 249 251 252 254 255 256 257 258 258 260 261 263 264 265 266 267 267 268 270 271 272 273 273 274 276 275 276 276 275 275 275 276 276 276 276 276 276 275 272 269 266 266 271 274 272 268 266 265 266 267 267 266 267 269 272
252 251 251 251 251 252 254 255 256 256 255 254 253 253 253 254 255 256 256 256 255 255 254 254 253 252 252 251 251 251 252 253 254 255 256 256 257 258 259 261 262 264 265 266 267 268 269 270 271 271 272 271 271 272 275 276 275 275 274 273 274 274 274 274 272 271 271 269 266 265 265 266 270 273 270 266 265 266 266 266 266 267 269 271 275
252 250 250 251 253 254 255 257 258 259 259 258 257 255 255 255 256 255 256 256 257 257 256 255 254 254 253 253 254 255 256 258 259 259 259 259 258 259 259 260 261 262 263 265 266 267 268 269 270 270 270 271 271 272 274 276 274 272 271 271 271 272 272 270 268 268 267 265 263 263 264 265 266 267 267 266 267 268 268 267 268 271 273 276 278
254 252 250 249 252 253 255 256 257 258 258 257 256 256 255 255 255 256 257 258 258 258 256 255 255 254 253 256 259 261 263 264 265 264 264 264 264 263 263 262 262 261 261 262 264 265 265 267 267 266 268 272 273 273 273 274 273 271 270 270 270 271 270 269 268 269 268 266 264 263 263 263 264 264 265 268 269 269 270 271 273 275 277 279 281
254 253 251 250 251 251 253 254 253 254 255 254 254 255 256 255 255 256 258 258 258 257 254 253 255 256 257 262 267 268 267 267 267 265 265 265 267 268 267 265 262 260 259 260 262 264 265 265 264 265 268 271 273 273 273 273 271 270 269 269 269 269 269 269 268 267 267 266 265 263 262 263 264 265 267 270 271 272 273 275 277 279 280 282 282
249 249 248 248 249 249 249 251 251 251 252 252 251 252 253 254 254 254 255 254 253 252 252 254 258 260 263 267 269 268 267 266 266 266 266 268 270 272 271 270 267 264 263 263 265 267 268 267 267 267 269 271 272 272 271 270 270 268 267 267 267 267 267 267 265 264 264 265 265 264 262 264 266 268 270 272 273 274 275 277 279 280 282 282 282
250 249 246 245 244 244 245 246 246 246 247 250 251 249 246 247 248 248 249 249 250 251 255 258 261 264 266 268 268 268 268 268 269 270 271 272 273 274 274 273 271 269 269 268 269 269 270 270 271 271 272 273 272 271 269 268 267 266 265 265 265 265 266 266 264 264 265 266 265 265 265 266 268 270 271 272 274 275 276 278 279 280 280 280 281
251 253 253 251 250 249 249 248 247 248 249 251 253 251 248 248 250 251 250 251 253 256 259 262 264 266 268 269 270 270 271 271 273 274 274 274 274 274 274 273 272 272 272 271 271 272 272 272 272 273 273 272 270 268 267 266 264 264 264 263 263 264 264 264 265 266 267 268 268 268 268 268 269 270 270 271 273 275 276 277 278 278 279 279 280
249 251 253 253 253 252 252 251 251 252 253 253 254 253 252 253 256 258 258 258 260 262 264 266 267 268 269 270 271 271 272 272 273 274 274 275 274 274 274 274 274 273 273 273 274 275 274 272 271 271 270 268 266 266 265 263 262 262 262 261 261 262 264 265 267 269 270 270 270 270 269 269 269 269 270 270 272 273 275 276 277 278 278 279 280
251 252 254 255 255 255 255 256 256 256 257 257 257 256 257 258 259 261 263 264 265 266 267 268 269 269 270 271 271 272 272 273 273 273 274 274 274 274 274 274 274 274 273 274 274 273 272 271 271 270 268 267 267 266 263 260 259 259 260 259 260 261 263 265 268 270 270 271 271 270 269 269 269 269 269 269 270 272 274 275 276 277 278 278 278
255 255 257 258 258 259 259 260 260 261 261 261 261 261 261 262 263 264 265 266 267 267 268 269 269 270 271 271 272 272 273 273 273 273 274 274 274 275 275 275 275 274 274 273 273 272 270 269 269 268 268 267 266 264 261 259 258 258 258 259 260 262 264 266 267 267 268 268 269 268 267 267 267 268 269 269 270 272 275 276 277 277 277 278 278
259 259 260 260 261 262 262 262 263 263 263 264 264 264 264 265 265 266 267 267 268 268 269 270 270 271 271 272 272 272 273 273 273 273 273 273 274 274 273 273 273 274 273 273 273 272 269 267 267 267 266 265 264 262 260 259 257 258 259 260 261 263 265 266 265 265 265 265 266 265 265 265 267 268 268 269 269 270 273 276 277 278 278 278 279
263 263 263 263 263 264 264 264 264 264 264 264 264 264 264 264 265 265 266 266 267 268 268 269 270 270 271 271 271 272 272 272 272 271 271 271 271 271 271 272 272 272 273 273 272 271 268 267 267 266 264 263 262 261 260 259 259 259 259 260 262 263 263 263 262 263 264 263 263 263 263 265 267 266 266 266 266 267 271 275 276 278 279 281 281
263 264 264 264 265 265 265 265 265 265 265 265 265 264 264 264 264 265 265 265 266 266 267 267 268 268 269 269 269 270 270 270 270 270 270 270 270 270 271 271 271 271 271 271 271 270 269 267 267 266 264 263 262 261 260 260 260 260 260 260 261 260 261 261 259 260 261 260 259 260 261 262 263 263 263 263 264 267 270 273 275 279 281 282 282
263 263 264 264 264 264 264 265 265 265 265 265 265 265 265 265 265 265 266 266 266 266 267 267 267 267 267 267 268 268 268 269 269 269 270 270 270 270 270 270 270 270 269 269 268 268 267 266 264 264 263 263 262 261 260 259 259 259 259 259 259 258 259 260 259 259 260 259 256 256 258 259 260 261 262 262 264 266 269 273 278 281 281 280 280
263 263 263 264 264 264 265 265 265 266 266 266 266 266 266 266 266 266 267 267 267 267 267 267 267 268 268 268 268 268 268 268 269 269 269 269 269 269 269 269 268 268 266 265 265 264 263 262 261 260 261 262 261 261 260 259 258 257 255 255 255 255 255 256 256 256 256 255 252 252 254 256 256 257 259 261 264 267 271 276 279 279 278 278 280
263 263 263 264 264 265 265 266 266 267 267 267 267 267 267 267 268 268 268 268 268 268 269 269 269 269 269 269 269 268 268 268 268 268 267 267 267 267 266 266 265 264 263 263 262 261 258 256 255 255 256 258 260 260 259 257 255 253 252 252 252 252 253 253 254 254 254 253 253 253 254 256 257 259 262 266 269 272 274 276 276 276 277 280 282
263 264 264 265 266 266 267 268 268 269 269 269 270 270 270 271 271 272 272 272 272 272 272 272 272 271 271 270 270 269 269 268 267 267 266 266 265 265 264 263 263 262 261 260 259 258 255 254 253 252 252 255 258 256 253 253 254 255 255 254 253 254 255 256 257 259 259 259 260 261 262 263 263 265 268 270 272 273 274 275 276 277 280 282 284
267 268 269 269 270 271 271 272 273 273 274 274 275 275 276 277 277 278 278 278 278 277 276 276 275 275 275 274 273 273 272 271 270 269 268 267 267 266 265 263 263 262 261 259 257 255 254 253 253 251 249 252 257 255 249 249 252 255 257 256 255 256 257 258 260 262 263 263 263 264 264 265 265 266 268 269 270 271 272 275 277 279 281 283 284
Height
5777 5778 5779 5779 5778 5776 5776 5777 5779 5780 5780 5781 5782 5783 5783 5783 5784 5783 5783 5783 5783 5783 5783 5783 5783 5784 5784 5785 5785 5786 5787 5788 5789 5789 5790 5790 5790 5791 5791 5791 5791 5791 5791 5791 5791 5791 5791 5790 5789 5787 5787 5788 5789 5790 5790 5790 5791 5791 5792 5792 5793 5794 5794 5794 5795 5795 5796 5797 5797 5798 5798 5798 5798 5798 5798 5798 5798 5798 5798 5798 5799 5799 5799 5798 5799
5775 5776 5777 5777 5775 5773 5773 5775 5776 5777 5778 5779 5780 5781 5781 5781 5781 5782 5781 5780 5780 5781 5781 5781 5782 5782 5783 5783 5784 5785 5785 5786 5787 5787 5788 5788 5788 5789 5789 5789 5789 5790 5790 5790 5790 5790 5790 5789 5789 5787 5787 5787 5788 5788 5788 5788 5789 5789 5790 5791 5792 5793 5793 5794 5795 5794 5795 5796 5796 5796 5796 5796 5797 5797 5797 5798 5797 5797 5797 5798 5798 5798 5798 5797 5796
5774 5775 5776 5775 5771 5769 5770 5772 5774 5775 5776 5778 5778 5778 5778 5779 5778 5777 5778 5779 5778 5778 5779 5779 5780 5780 5781 5782 5782 5783 5783 5784 5785 5785 5786 5786 5786 5787 5787 5788 5788 5789 5789 5789 5789 5789 5789 5789 5788 5788 5787 5786 5786 5786 5786 5786 5787 5788 5789 5789 5790 5791 5792 5794 5794 5794 5794 5795 5794 5794 5794 5794 5795 5797 5797 5798 5797 5796 5796 5797 5797 5797 5797 5796 5795
5772 5773 5774 5773 5769 5767 5767 5769 5771 5773 5775 5776 5776 5775 5775 5776 5775 5774 5775 5775 5775 5775 5775 5776 5777 5778 5779 5779 5780 5780 5781 5782 5782 5783 5784 5784 5785 5785 5786 5786 5787 5787 5787 5788 5788 5788 5788 5788 5787 5787 5786 5786 5785 5784 5784 5785 5785 5787 5788 5789 5789 5790 5791 5792 5793 5793 5794 5793 5792 5792 5792 5791 5793 5796 5796 5796 5796 5796 5796 5796 5796 5796 5796 5795 5793
5770 5771 5772 5771 5768 5765 5764 5765 5768 5770 5772 5773 5773 5773 5772 5772 5773 5773 5773 5772 5772 5773 5772 5773 5775 5776 5777 5777 5778 5778 5779 5779 5780 5781 5782 5782 5783 5783 5784 5784 5785 5786 5786 5787 5787 5787 5787 5786 5786 5786 5785 5785 5785 5784 5784 5784 5784 5785 5787 5789 5789 5789 5790 5791 5792 5793 5792 5791 5790 5791 5791 5790 5792 5794 5794 5794 5795 5795 5795 5795 5794 5794 5794 5794 5792
5768 5769 5770 5769 5768 5765 5762 5762 5765 5767 5768 5769 5769 5769 5769 5769 5769 5770 5770 5770 5770 5771 5769 5770 5772 5773 5774 5775 5775 5776 5777 5778 5779 5779 5780 5780 5781 5781 5782 5783 5783 5784 5785 5785 5786 5786 5786 5785 5785 5784 5784 5784 5784 5784 5784 5784 5784 5784 5786 5787 5788 5789 5790 5791 5791 5791 5791 5790 5789 5789 5789 5788 5790 5791 5791 5793 5793 5794 5794 5793 5793 5793 5792 5792 5791
5766 5767 5767 5768 5767 5765 5761 5761 5763 5764 5765 5765 5766 5765 5764 5765 5765 5766 5767 5767 5768 5769 5766 5766 5769 5770 5772 5773 5774 5774 5775 5776 5777 5778 5778 5779 5779 5780 5780 5781 5782 5783 5784 5784 5785 5785 5785 5785 5784 5783 5783 5783 5782 5783 5783 5784 5784 5784 5785 5786 5787 5788 5789 5789 5790 5789 5789 5788 5788 5788 5787 5786 5787 5788 5789 5790 5791 5791 5792 5792 5792 5792 5791 5791 5790
5763 5764 5765 5766 5766 5764 5761 5760 5760 5760 5760 5760 5762 5763 5761 5760 5761 5763 5764 5763 5764 5766 5763 5763 5766 5768 5770 5771 5772 5773 5774 5774 5775 5776 5776 5777 5778 5779 5779 5780 5781 5781 5782 5783 5783 5783 5784 5783 5783 5782 5782 5782 5781 5781 5782 5782 5783 5783 5784 5784 5785 5786 5786 5786 5787 5787 5787 5786 5786 5787 5787 5786 5786 5786 5787 5787 5788 5789 5790 5790 5790 5791 5790 5789 5789
5760 5761 5762 5763 5764 5762 5761 5760 5759 5757 5755 5756 5758 5759 5758 5758 5759 5760 5761 5760 5762 5765 5762 5761 5765 5767 5768 5770 5770 5771 5772 5773 5773 5774 5775 5776 5776 5777 5778 5779 5780 5780 5781 5781 5782 5782 5782 5782 5782 5781 5781 5781 5781 5780 5780 5781 5781 5782 5782 5782 5782 5782 5783 5783 5783 5783 5784 5784 5785 5785 5786 5785 5784 5784 5784 5784 5785 5786 5786 5788 5789 5789 5788 5787 5787
5758 5757 5758 5760 5761 5761 5761 5760 5758 5755 5753 5754 5756 5756 5757 5759 5761 5761 5762 5763 5765 5766 5764 5762 5764 5766 5767 5768 5769 5770 5771 5771 5772 5773 5774 5775 5775 5776 5777 5778 5778 5779 5779 5780 5780 5780 5780 5780 5780 5780 5780 5780 5780 5779 5779 5779 5779 5780 5780 5780 5780 5780 5780 5780 5780 5781 5781 5782 5783 5783 5784 5785 5783 5782 5782 5782 5783 5783 5783 5784 5785 5785 5785 5785 5784
5756 5756 5757 5758 5759 5758 5757 5756 5755 5754 5752 5754 5757 5757 5758 5761 5763 5763 5764 5765 5766 5766 5766 5764 5765 5766 5767 5768 5768 5769 5769 5770 5771 5771 5773 5773 5774 5775 5776 5776 5777 5777 5778 5778 5779 5779 5779 5779 5779 5779 5779 5778 5778 5778 5778 5778 5777 5778 5778 5778 5778 5778 5778 5779 5779 5779 5779 5781 5781 5781 5782 5783 5781 5781 5781 5780 5780 5780 5779 5780 5782 5782 5782 5782 5782
5754 5755 5756 5756 5755 5752 5751 5753 5754 5754 5754 5756 5759 5760 5761 5763 5764 5763 5763 5763 5763 5763 5764 5765 5766 5766 5767 5768 5768 5768 5768 5768 5769 5770 5771 5772 5773 5774 5774 5775 5775 5776 5776 5776 5777 5777 5777 5777 5777 5777 5777 5777 5777 5777 5776 5776 5775 5775 5776 5776 5776 5776 5777 5777 5777 5778 5778 5779 5779 5779 5780 5780 5779 5779 5779 5778 5777 5778 5778 5778 5779 5779 5779 5779 5779
5752 5753 5754 5753 5749 5746 5747 5752 5754 5756 5757 5759 5760 5761 5762 5762 5761 5760 5760 5761 5761 5761 5761 5763 5764 5765 5766 5767 5767 5767 5767 5767 5768 5768 5769 5770 5771 5772 5773 5773 5773 5774 5774 5774 5774 5775 5775 5775 5775 5775 5775 5775 5775 5775 5775 5774 5774 5774 5774 5774 5774 5774 5775 5775 5775 5776 5776 5776 5776 5777 5777 5778 5778 5777 5777 5777 5776 5776 5776 5776 5776 5776 5776 5776 5777
5750 5751 5751 5749 5746 5745 5747 5750 5753 5755 5757 5758 5759 5760 5760 5759 5757 5755 5756 5758 5759 5760 5760 5762 5763 5764 5764 5765 5765 5765 5766 5766 5766 5767 5767 5768 5769 5770 5771 5771 5771 5771 5771 5771 5772 5772 5773 5773 5773 5773 5773 5773 5773 5773 5773 5772 5772 5772 5772 5772 5772 5772 5772 5773 5773 5773 5774 5774 5774 5774 5775 5775 5776 5776 5775 5775 5775 5774 5774 5774 5774 5774 5774 5774 5775
5746 5747 5747 5746 5745 5746 5747 5748 5750 5752 5754 5754 5755 5756 5756 5757 5756 5754 5754 5756 5757 5758 5759 5760 5762 5764 5763 5763 5763 5764 5765 5765 5765 5765 5765 5766 5767 5768 5769 5769 5769 5769 5769 5769 5769 5770 5770 5770 5770 5770 5771 5771 5771 5771 5771 5771 5770 5770 5770 5770 5770 5770 5771 5771 5771 5771 5772 5772 5772 5772 5772 5773 5773 5773 5773 5773 5773 5773 5773 5773 5773 5773 5772 5772 5772
5744 5744 5744 5745 5745 5746 5746 5746 5747 5749 5751 5752 5752 5753 5754 5754 5754 5754 5754 5755 5755 5756 5757 5758 5760 5761 5762 5761 5762 5762 5763 5763 5763 5763 5764 5765 5765 5766 5766 5767 5767 5766 5766 5766 5767 5767 5767 5767 5767 5768 5768 5768 5768 5768 5769 5769 5769 5769 5769 5769 5769 5769 5769 5769 5769 5770 5770 5770 5770 5770 5771 5771 5771 5771 5772 5772 5772 5771 5771 5771 5771 5771 5770 5770 5770
5742 5742 5742 5743 5744 5744 5744 5744 5744 5747 5750 5751 5752 5752 5753 5752 5752 5752 5753 5754 5754 5754 5755 5756 5757 5758 5759 5759 5760 5760 5761 5761 5761 5762 5762 5763 5764 5764 5765 5765 5765 5764 5764 5764 5764 5765 5765 5765 5765 5766 5766 5766 5766 5766 5767 5767 5767 5767 5767 5768 5768 5768 5768 5768 5768 5768 5768 5768 5769 5769 5769 5769 5769 5770 5770 5770 5770 5770 5770 5769 5769 5769 5768 5768 5768
5740 5740 5740 5741 5741 5742 5742 5741 5742 5746 5748 5750 5750 5750 5751 5751 5751 5750 5750 5751 5752 5752 5752 5753 5754 5755 5756 5757 5758 5758 5759 5759 5759 5760 5760 5761 5762 5762 5762 5763 5763 5763 5762 5762 5762 5762 5763 5763 5764 5764 5764 5764 5765 5765 5765 5766 5766 5766 5766 5766 5766 5766 5766 5766 5766 5766 5766 5767 5767 5767 5767 5767 5768 5768 5768 5768 5768 5768 5767 5767 5767 5767 5767 5767 5767
5737 5738 5738 5739 5739 5740 5740 5739 5740 5742 5744 5745 5746 5747 5748 5748 5749 5749 5749 5749 5749 5749 5750 5751 5751 5752 5754 5755 5756 5756 5756 5756 5757 5757 5758 5759 5759 5760 5760 5760 5760 5760 5760 5760 5760 5760 5761 5761 5762 5762 5763 5763 5763 5764 5764 5764 5765 5765 5765 5765 5765 5765 5765 5765 5765 5765 5765 5765 5765 5765 5766 5766 5766 5766 5766 5766 5766 5766 5766 5766 5766 5766 5765 5765 5765
5736 5737 5737 5737 5737 5737 5737 5736 5737 5738 5740 5740 5741 5743 5745 5746 5746 5746 5746 5746 5747 5747 5747 5748 5749 5751 5752 5753 5753 5753 5753 5754 5754 5755 5755 5756 5757 5758 5758 5758 5758 5758 5758 5758 5758 5759 5759 5760 5760 5761 5761 5761 5762 5762 5762 5763 5763 5763 5763 5763 5763 5763 5763 5763 5763 5763 5763 5763 5764 5764 5764 5764 5764 5764 5764 5764 5764 5764 5764 5764 5764 5764 5764 5763 5763
5734 5735 5735 5735 5734 5734 5734 5733 5733 5734 5736 5738 5739 5740 5741 5741 5742 5743 5744 5744 5744 5745 5745 5745 5746 5748 5749 5749 5750 5750 5751 5751 5752 5753 5753 5754 5755 5755 5756 5756 5756 5756 5756 5756 5756 5757 5757 5757 5758 5759 5759 5760 5760 5761 5761 5761 5761 5761 5761 5761 5761 5761 5761 5761 5761 5762 5762 5762 5762 5762 5762 5762 5762 5762 5763 5763 5763 5763 5763 5763 5762 5762 5762 5762 5761
5732 5732 5733 5733 5733 5732 5731 5730 5730 5730 5733 5735 5736 5737 5737 5737 5737 5739 5740 5740 5741 5742 5742 5743 5744 5745 5745 5746 5746 5747 5748 5748 5749 5750 5751 5752 5753 5753 5754 5754 5754 5754 5755 5755 5754 5754 5755 5755 5756 5756 5757 5758 5758 5759 5759 5759 5759 5759 5760 5760 5760 5760 5760 5760 5760 5760 5759 5760 5760 5760 5760 5760 5760 5760 5760 5760 5760 5760 5760 5760 5760 5760 5760 5760 5759
5729 5730 5731 5731 5730 5730 5729 5728 5727 5727 5729 5730 5731 5732 5732 5732 5733 5734 5735 5736 5737 5738 5738 5739 5740 5741 5742 5742 5743 5744 5745 5746 5747 5747 5748 5749 5750 5751 5752 5752 5752 5753 5753 5753 5753 5752 5752 5753 5753 5754 5754 5755 5756 5756 5757 5757 5757 5757 5758 5758 5758 5758 5758 5758 5758 5757 5757 5757 5757 5757 5757 5757 5757 5757 5758 5758 5758 5758 5758 5758 5758 5758 5758 5757 5757
5726 5727 5727 5728 5728 5728 5727 5726 5724 5724 5725 5726 5727 5728 5728 5728 5730 5731 5732 5733 5733 5733 5733 5735 5736 5737 5738 5739 5739 5741 5742 5743 5744 5745 5746 5747 5748 5749 5749 5749 5750 5750 5750 5751 5751 5750 5750 5751 5751 5751 5752 5752 5753 5754 5754 5755 5755 5755 5755 5755 5755 5755 5755 5755 5755 5755 5755 5755 5755 5755 5755 5755 5755 5755 5755 5755 5755 5755 5755 5755 5755 5755 5755 5755 5755
5723 5724 5724 5724 5725 5725 5725 5724 5722 5722 5723 5723 5724 5725 5726 5726 5727 5728 5729 5730 5730 5730 5730 5732 5733 5734 5735 5736 5737 5737 5739 5740 5741 5742 5743 5744 5745 5746 5746 5747 5747 5747 5748 5748 5748 5748 5748 5749 5749 5749 5749 5750 5750 5751 5751 5752 5752 5753 5753 5753 5753 5753 5753 5753 5753 5753 5753 5753 5753 5752 5752 5752 5752 5752 5752 5752 5752 5752 5752 5752 5752 5752 5752 5752 5752
5720 5720 5721 5721 5721 5722 5722 5722 5721 5720 5720 5721 5721 5722 5723 5723 5724 5725 5726 5727 5728 5728 5729 5730 5731 5731 5732 5733 5734 5735 5736 5737 5739 5740 5740 5741 5742 5743 5743 5744 5744 5745 5745 5745 5746 5746 5746 5747 5747 5747 5747 5747 5747 5748 5749 5749 5750 5750 5750 5750 5750 5750 5750 5750 5751 5750 5750 5750 5750 5750 5750 5749 5749 5749 5749 5749 5749 5749 5749 5749 5748 5749 5749 5749 5748
5716 5717 5717 5718 5718 5719 5719 5719 5719 5718 5718 5718 5719 5720 5720 5721 5721 5722 5723 5724 5725 5726 5727 5728 5729 5729 5730 5731 5732 5733 5735 5736 5737 5738 5738 5738 5739 5739 5740 5740 5741 5742 5742 5743 5743 5744 5744 5744 5745 5744 5744 5745 5745 5745 5746 5747 5747 5747 5747 5748 5748 5748 5748 5748 5748 5748 5748 5748 5747 5747 5747 5746 5746 5746 5746 5746 5746 5745 5746 5746 5745 5745 5745 5746 5745
5713 5714 5714 5715 5715 5715 5716 5716 5716 5716 5716 5716 5716 5717 5718 5719 5719 5720 5721 5722 5723 5724 5725 5725 5726 5727 5728 5729 5730 5731 5733 5734 5734 5735 5735 5735 5736 5736 5737 5738 5738 5739 5740 5740 5741 5742 5742 5742 5742 5742 5742 5742 5743 5743 5743 5744 5744 5744 5745 5745 5745 5745 5745 5745 5745 5745 5745 5745 5745 5744 5744 5743 5743 5743 5742 5742 5742 5742 5742 5742 5742 5742 5742 5742 5742
5710 5710 5711 5712 5712 5713 5713 5714 5714 5714 5714 5714 5714 5715 5716 5717 5717 5718 5719 5719 5720 5721 5722 5723 5725 5726 5727 5728 5729 5729 5730 5731 5731 5732 5732 5732 5733 5733 5734 5735 5736 5736 5737 5738 5738 5739 5739 5739 5740 5740 5739 5740 5740 5740 5740 5741 5741 5741 5741 5741 5741 5742 5742 5742 5742 5742 5742 5742 5741 5741 5740 5740 5739 5739 5739 5739 5739 5739 5739 5739 5739 5738 5738 5738 5738
5706 5707 5708 5709 5709 5710 5710 5711 5711 5712 5712 5712 5713 5713 5713 5714 5715 5716 5717 5717 5718 5719 5720 5721 5723 5724 5725 5726 5726 5727 5728 5728 5728 5729 5729 5729 5730 5731 5732 5732 5733 5734 5734 5735 5735 5736 5736 5736 5736 5736 5736 5737 5737 5737 5737 5737 5737 5738 5738 5738 5738 5738 5738 5739 5739 5739 5739 5739 5738 5737 5736 5736 5735 5734 5734 5734 5734 5735 5735 5735 5735 5735 5734 5734 5734
5703 5703 5704 5705 5706 5707 5707 5708 5709 5709 5710 5710 5710 5710 5711 5711 5712 5713 5714 5715 5716 5717 5718 5719 5721 5721 5722 5723 5723 5724 5725 5725 5726 5726 5727 5727 5727 5728 5729 5730 5730 5731 5731 5731 5732 5732 5732 5733 5733 5733 5733 5733 5733 5733 5733 5733 5733 5734 5734 5734 5734 5734 5734 5735 5735 5736 5736 5736 5735 5733 5732 5732 5731 5730 5730 5729 5729 5730 5730 5731 5731 5730 5730 5730 5730
5700 5701 5701 5702 5703 5704 5704 5705 5706 5706 5707 5707 5707 5708 5708 5708 5709 5710 5711 5712 5713 5714 5715 5716 5717 5718 5719 5720 5720 5720 5721 5721 5722 5723 5723 5724 5724 5725 5726 5726 5727 5727 5727 5727 5728 5728 5729 5729 5729 5729 5730 5730 5729 5728 5728 5729 5729 5729 5729 5729 5729 5730 5730 5731 5732 5732 5733 5732 5731 5730 5728 5727 5726 5725 5725 5725 5725 5725 5725 5726 5726 5726 5726 5726 5726
5698 5698 5699 5699 5700 5701 5701 5702 5703 5703 5704 5704 5705 5705 5705 5705 5706 5707 5708 5709 5710 5711 5712 5713 5714 5715 5715 5716 5716 5717 5717 5718 5718 5719 5720 5720 5720 5721 5722 5722 5723 5723 5723 5723 5723 5724 5724 5725 5725 5725 5725 5726 5725 5724 5723 5724 5724 5724 5725 5725 5725 5725 5726 5727 5728 5729 5729 5728 5727 5724 5723 5722 5721 5721 5721 5721 5721 5721 5721 5721 5721 5721 5721 5721 5721
5694 5694 5695 5695 5696 5697 5698 5698 5699 5700 5701 5701 5702 5702 5702 5702 5703 5703 5704 5704 5705 5706 5707 5708 5709 5710 5711 5711 5712 5712 5713 5713 5714 5715 5715 5716 5716 5717 5717 5718 5719 5719 5718 5718 5718 5719 5719 5720 5720 5720 5720 5721 5721 5720 5719 5719 5720 5720 5720 5720 5720 5720 5721 5722 5724 5724 5724 5723 5722 5719 5717 5717 5717 5717 5716 5716 5716 5716 5716 5716 5716 5716 5716 5717 5717
5688 5689 5690 5691 5692 5693 5693 5694 5695 5696 5696 5697 5697 5698 5698 5699 5699 5699 5700 5700 5701 5702 5702 5703 5703 5704 5705 5706 5707 5707 5708 5709 5709 5710 5710 5711 5712 5712 5713 5713 5714 5714 5713 5713 5714 5714 5714 5714 5715 5715 5715 5715 5715 5715 5714 5714 5714 5714 5714 5714 5714 5715 5715 5717 5718 5719 5718 5717 5717 5715 5714 5713 5713 5712 5710 5710 5710 5710 5711 5711 5711 5712 5712 5712 5712
5683 5684 5685 5686 5687 5688 5689 5690 5690 5691 5691 5692 5692 5693 5693 5694 5694 5694 5694 5695 5695 5696 5697 5697 5698 5698 5699 5700 5701 5702 5703 5703 5704 5704 5704 5705 5706 5706 5707 5707 5708 5708 5708 5708 5709 5709 5709 5709 5709 5709 5709 5709 5709 5709 5709 5709 5709 5709 5709 5708 5708 5709 5709 5711 5712 5712 5712 5711 5711 5711 5710 5709 5708 5707 5705 5705 5705 5706 5706 5706 5707 5707 5707 5707 5707
5678 5679 5680 5681 5682 5684 5684 5684 5685 5686 5686 5687 5687 5688 5688 5689 5689 5689 5689 5689 5690 5692 5692 5692 5692 5693 5694 5694 5695 5696 5696 5697 5697 5697 5698 5698 5699 5699 5700 5701 5701 5701 5702 5703 5703 5703 5703 5703 5703 5703 5703 5703 5703 5703 5703 5703 5703 5703 5703 5702 5702 5702 5703 5704 5705 5706 5705 5705 5706 5706 5705 5704 5704 5702 5701 5701 5701 5701 5701 5702 5702 5702 5702 5702 5702
5673 5675 5676 5676 5677 5679 5679 5679 5680 5681 5681 5681 5682 5682 5683 5683 5684 5684 5684 5684 5686 5687 5687 5687 5687 5687 5688 5688 5688 5689 5689 5689 5689 5690 5691 5692 5692 5692 5692 5693 5694 5694 5695 5696 5696 5697 5697 5697 5697 5697 5697 5697 5697 5697 5696 5696 5697 5697 5697 5697 5696 5696 5697 5698 5699 5699 5699 5700 5700 5700 5700 5700 5699 5698 5697 5697 5696 5696 5696 5697 5697 5697 5697 5697 5696
5668 5669 5670 5671 5672 5673 5673 5673 5674 5675 5676 5676 5677 5678 5678 5678 5678 5678 5678 5679 5680 5680 5680 5680 5681 5681 5681 5681 5681 5682 5682 5682 5682 5683 5684 5684 5685 5685 5685 5685 5686 5687 5687 5688 5689 5690 5690 5690 5690 5690 5690 5690 5690 5689 5688 5689 5690 5690 5691 5691 5691 5690 5691 5692 5692 5692 5693 5693 5694 5694 5694 5694 5694 5693 5692 5692 5691 5691 5691 5691 5691 5691 5691 5692 5691
5662 5663 5664 5665 5666 5667 5668 5668 5669 5669 5670 5671 5671 5672 5672 5671 5671 5671 5672 5672 5673 5673 5673 5673 5674 5674 5674 5674 5674 5675 5675 5675 5675 5675 5676 5676 5677 5677 5677 5677 5678 5678 5679 5680 5681 5682 5682 5682 5682 5682 5682 5682 5682 5682 5682 5682 5683 5684 5684 5685 5685 5685 5685 5685 5685 5685 5686 5687 5687 5687 5688 5687 5687 5687 5686 5686 5686 5686 5686 5685 5685 5685 5686 5686 5686
5657 5658 5658 5659 5660 5661 5662 5662 5663 5663 5664 5664 5665 5665 5665 5664 5664 5664 5664 5665 5665 5666 5666 5666 5666 5666 5666 5666 5666 5667 5667 5667 5667 5667 5667 5668 5668 5668 5668 5669 5670 5670 5671 5671 5672 5674 5673 5672 5674 5675 5675 5674 5674 5675 5675 5675 5676 5677 5677 5678 5679 5679 5679 5679 5679 5679 5680 5680 5680 5680 5680 5680 5680 5680 5680 5680 5681 5681 5680 5680 5680 5680 5680 5680 5680
5652 5652 5652 5653 5654 5654 5655 5655 5656 5656 5657 5657 5658 5658 5658 5658 5657 5657 5657 5658 5658 5658 5658 5658 5658 5658 5658 5658 5658 5658 5658 5658 5659 5658 5658 5658 5659 5659 5659 5660 5661 5662 5662 5663 5665 5666 5664 5664 5666 5666 5666 5667 5667 5667 5669 5669 5669 5670 5671 5671 5672 5673 5673 5673 5673 5672 5673 5674 5674 5673 5673 5674 5674 5674 5674 5675 5675 5675 5675 5675 5675 5675 5674 5674 5674
5647 5647 5647 5647 5648 5648 5648 5649 5649 5650 5650 5650 5651 5651 5651 5651 5651 5650 5650 5650 5650 5650 5650 5649 5649 5649 5649 5649 5649 5649 5649 5649 5649 5649 5649 5649 5649 5649 5649 5650 5651 5653 5653 5654 5656 5657 5656 5657 5658 5658 5657 5659 5659 5659 5661 5662 5662 5663 5664 5664 5665 5666 5665 5666 5667 5666 5667 5669 5668 5667 5667 5668 5668 5668 5669 5669 5669 5670 5670 5670 5669 5669 5669 5669 5668
5641 5642 5642 5642 5642 5642 5642 5643 5643 5643 5644 5644 5644 5644 5643 5643 5643 5642 5642 5642 5642 5641 5641 5641 5641 5640 5640 5640 5639 5639 5639 5639 5639 5639 5639 5639 5640 5640 5640 5641 5642 5643 5644 5645 5647 5648 5647 5648 5649 5649 5648 5649 5651 5651 5652 5654 5655 5656 5657 5657 5658 5658 5658 5659 5659 5659 5661 5662 5662 5660 5661 5662 5662 5663 5663 5663 5664 5664 5664 5664 5664 5664 5664 5663 5663
5635 5636 5636 5636 5636 5636 5636 5636 5636 5637 5637 5637 5637 5636 5636 5635 5635 5635 5634 5634 5633 5633 5633 5632 5632 5631 5631 5631 5630 5630 5630 5629 5629 5629 5629 5630 5630 5630 5631 5632 5634 5634 5635 5635 5636 5637 5638 5639 5639 5640 5640 5640 5641 5643 5643 5644 5646 5647 5648 5649 5650 5651 5651 5652 5652 5653 5655 5655 5654 5654 5655 5656 5656 5657 5657 5658 5658 5659 5659 5659 5659 5659 5658 5658 5657
5629 5630 5630 5629 5629 5629 5629 5629 5629 5629 5629 5629 5628 5628 5627 5627 5626 5626 5626 5626 5625 5625 5625 5624 5623 5623 5622 5622 5621 5621 5620 5620 5619 5619 5619 5619 5620 5621 5621 5623 5624 5625 5625 5626 5626 5627 5628 5628 5629 5630 5631 5631 5632 5634 5635 5635 5637 5638 5639 5641 5642 5642 5643 5644 5645 5646 5647 5647 5647 5648 5648 5649 5650 5651 5651 5652 5652 5653 5653 5654 5653 5653 5652 5652 5651
5622 5622 5622 5622 5621 5621 5621 5621 5621 5620 5620 5620 5619 5618 5617 5617 5617 5616 5616 5616 5616 5616 5615 5615 5614 5613 5613 5612 5611 5611 5610 5610 5610 5610 5609 5609 5610 5611 5612 5613 5614 5616 5616 5615 5617 5618 5619 5619 5619 5620 5621 5623 5624 5625 5626 5627 5629 5630 5631 5632 5633 5634 5635 5636 5637 5638 5639 5640 5641 5641 5642 5643 5644 5645 5645 5646 5646 5647 5648 5648 5647 5647 5646 5646 5645
5615 5615 5614 5613 5613 5613 5613 5613 5613 5612 5611 5611 5609 5608 5607 5607 5607 5607 5607 5607 5606 5606 5605 5605 5604 5603 5602 5601 5601 5601 5600 5600 5600 5599 5599 5599 5599 5600 5601 5602 5604 5605 5605 5605 5607 5609 5611 5611 5611 5611 5612 5614 5616 5617 5618 5620 5621 5622 5622 5623 5624 5625 5626 5628 5630 5631 5632 5633 5634 5634 5635 5636 5637 5638 5639 5639 5640 5641 5642 5642 5641 5641 5640 5639 5639
5607 5607 5606 5605 5605 5605 5605 5605 5604 5603 5602 5601 5600 5598 5597 5597 5597 5597 5597 5597 5596 5596 5595 5595 5594 5593 5592 5591 5590 5590 5589 5589 5589 5589 5588 5588 5589 5589 5590 5591 5592 5592 5593 5595 5597 5600 5602 5603 5604 5604 5605 5606 5607 5609 5610 5612 5613 5613 5614 5615 5616 5617 5619 5621 5623 5623 5624 5625 5626 5627 5628 5629 5630 5631 5632 5633 5634 5635 5635 5635 5635 5634 5633 5633 5632
5600 5598 5598 5598 5598 5597 5597 5596 5595 5595 5593 5591 5590 5589 5589 5589 5588 5588 5588 5587 5587 5586 5586 5585 5584 5583 5582 5581 5580 5579 5578 5578 5579 5578 5578 5577 5578 5578 5579 5580 5580 5580 5582 5585 5587 5590 5593 5594 5595 5598 5599 5598 5599 5602 5604 5604 5605 5606 5607 5608 5610 5611 5613 5614 5614 5614 5616 5618 5619 5620 5621 5622 5623 5624 5625 5626 5628 5628 5628 5628 5628 5627 5627 5627 5626
5592 5590 5590 5590 5590 5589 5589 5588 5587 5586 5584 5582 5581 5581 5581 5580 5580 5579 5579 5578 5578 5577 5576 5575 5574 5573 5572 5571 5570 5569 5568 5567 5567 5567 5567 5566 5566 5567 5567 5568 5568 5568 5571 5574 5576 5579 5582 5583 5586 5590 5593 5592 5591 5594 5596 5597 5598 5599 5601 5602 5603 5604 5606 5607 5607 5607 5609 5610 5612 5613 5614 5616 5617 5618 5619 5620 5621 5621 5622 5622 5622 5621 5621 5620 5619